Location: Unspecified
(52.1971°N, 0.0000°E)
Time: 09:14:03
(UTC+00:00)

YUBILEINY - Pass Details

Date: 23 December 2019
Orbit: 1478 x 1509 km, 82.5° (Epoch: 28 January)

Event Time Altitude Azimuth Distance (km) Brightness Sun altitude
Rises 04:35:09 0° 346° (NNW) 4,613 ? -31.0°
Reaches altitude 10° 04:39:01 10° 2° (N) 3,631 ? -30.4°
Maximum altitude 04:45:27 22° 50° (NE) 2,804 ? -29.4°
Drops below altitude 10° 04:51:51 10° 98° (E) 3,629 ? -28.4°
Sets 04:55:40 0° 113° (ESE) 4,610 ? -27.9°
